NUSAT-4 (ADA) (43195 NORAD) Tracking and Keplerian Element Data

This shows tracking and keplerian element data for the satellite.

Feedback or suggestion? Click here.




ElementValue
Catalog43195
NameNUSAT-4 (ADA)
Epoch Orbit20182
Epoch Day262.24627528
Epoch Year2021
RAAN36.0399
Inclination97.4986
Eccentricity0.0015145
Argument of Perigee285.2901
Mean Anonmoly191.3868
Mean Motion15.26216699
Decay Rate2.313E-05
L11 43195U 18015D 21262.24627528 .00002313 00000-0 92028-4 0 9990
L22 43195 97.4986 36.0399 0015145 285.2901 191.3868 15.26216699201826

Live tracking and technical data element details for NUSAT-4 (ADA) (NORAD 43195). NUSAT-4 (ADA) can be tracked NOW for your location showing map with azimuth and elevation plus other details from your city location.

Track the satellite on the map from your city or location and see movement details for azimuth, elevation, latitude, longitude, range, height, and movement on the map or in text.







IsCatalogInMostPopularTable: catalog: 43195, numindb: 591
Update: records affected: 1



GetName: 43195 NUSAT-4 (ADA)

Hit Count: updated at: Sun, 26 Sep 2021 00:01:24 GMT